{"data":{"norad_id":56055,"intl_designator":"2023-043K","name":"ONEWEB-0553","alt_names":[],"object_type":"PAYLOAD","status":"ACTIVE","operator":null,"country":"UK","launch_date":"2023-03-26","launch_site_code":"SRILR","launch_vehicle":null,"mission":null,"orbit_class":"UNKNOWN","rcs_meters":null,"size_class":null,"mass_kg":null,"dimensions":null,"purposes":["comms"],"wikipedia_slug":null,"has_3d_model":false,"image_url":null,"decayed_at":null,"tle_current":{"epoch":"2026-05-25T05:32:24.670176Z","epoch_age_seconds":65495,"freshness":"FRESH","line1":"1 56055U 23043K   26145.23084109  .00000131  00000+0  31024-3 0  9995","line2":"2 56055  87.9106 233.3322 0002352 105.8858 254.2532 13.16593030155958","mean_motion":13.1659303,"eccentricity":0.0002352,"inclination_deg":87.9106,"raan_deg":233.3322,"arg_perigee_deg":105.8858,"mean_anomaly_deg":254.2532,"bstar":0.00031024,"rev_number":15595,"period_min":109.37320547717,"perigee_km":1195.9795227026,"apogee_km":1199.5432252978,"semimajor_km":7575.8983740002,"source":"CELESTRAK","updated_at":"2026-05-25T13:38:22.701699Z"}}}